This demonstration page uses our WeatherBlox Daily Observations layout. Learn more.

Left ArrowRight Arrow

39.01783, -85.05884

Hourly Observations for July 29, 2018

Temp ( °F °C ) Dew Point ( °F °C ) Humidity (%) Winds ( mph kmh ) Pressure ( in mb ) Visibility ( mi km ) Precip ( " mm )
12:52 am 00:52 Mostly Clear 66 18.9 59 15 78 78 Calm 30.11 1020 10 16 0.00 0.00
1:52 am 01:52 Partly Cloudy 66 18.9 60 15.6 81 81 Calm 30.10 1019 10 16 0.00 0.00
2:52 am 02:52 Partly Cloudy 66 18.9 61 16.1 84 84 Calm 30.11 1020 10 16 0.00 0.00
3:52 am 03:52 Partly Cloudy 62 16.7 59 15 90 90 Calm 30.11 1020 10 16 0.00 0.00
4:52 am 04:52 Partly Cloudy 63 17.2 60 15.6 90 90 Calm 30.10 1019 10 16 0.00 0.00
5:52 am 05:52 Clear 61 16.1 59 15 93 93 Calm 30.10 1019 10 16 0.00 0.00
6:52 am 06:52 Partly Cloudy 62 16.7 61 16.1 96 96 Calm 30.12 1020 9 14 0.00 0.00
7:52 am 07:52 Partly Cloudy 64 17.8 63 17.2 96 96 ESE 3 6 30.10 1019 8 13 0.00 0.00
8:52 am 08:52 Mostly Sunny 71 21.7 63 17.2 76 76 SSE 5 7 30.09 1019 10 16 0.00 0.00
9:52 am 09:52 Mostly Sunny 74 23.3 63 17.2 69 69 Calm 30.11 1020 10 16 0.00 0.00
10:52 am 10:52 Partly Cloudy 77 25 62 16.7 60 60 S 7 11 30.10 1019 10 16 0.00 0.00
11:52 am 11:52 Mostly Cloudy 80 26.7 64 17.8 58 58 VRB 7 11 30.10 1019 10 16 0.00 0.00
12:52 pm 12:52 Mostly Cloudy 78 25.6 62 16.7 58 58 Calm 30.09 1019 10 16 0.00 0.00
1:52 pm 13:52 Mostly Cloudy 78 25.6 62 16.7 58 58 S 5 7 30.09 1019 10 16 0.00 0.00
2:52 pm 14:52 Mostly Cloudy 78 25.6 61 16.1 56 56 SSW 3 6 30.08 1019 10 16 0.00 0.00
3:52 pm 15:52 Mostly Cloudy 81 27.2 60 15.6 49 49 Calm 30.06 1018 10 16 0.00 0.00
4:52 pm 16:52 Mostly Cloudy 81 27.2 61 16.1 51 51 Calm 30.06 1018 10 16 0.00 0.00
5:52 pm 17:52 Mostly Cloudy 80 26.7 62 16.7 54 54 E 8 13 30.04 1017 10 16 0.00 0.00
6:52 pm 18:52 Mostly Cloudy 80 26.7 60 15.6 51 51 NE 7 11 30.04 1017 10 16 0.00 0.00
7:52 pm 19:52 Mostly Cloudy 78 25.6 61 16.1 56 56 E 5 7 30.04 1017 10 16 0.00 0.00
8:52 pm 20:52 Cloudy 77 25 61 16.1 58 58 E 5 7 30.04 1017 10 16 0.00 0.00
9:52 pm 21:52 Cloudy 76 24.4 62 16.7 62 62 E 7 11 30.05 1018 10 16 0.00 0.00
10:52 pm 22:52 Cloudy 76 24.4 62 16.7 62 62 VRB 3 6 30.06 1018 10 16 0.00 0.00
11:52 pm 23:52 Cloudy 73 22.8 65 18.3 76 76 N 7 11 30.06 1018 10 16 0.00 0.00

Powered by AerisWeather